UPSVAC Airport Information Service

Denver International Airport

ICAO: KDEN Country: United States
Latitude: 39.8616 Longitude: -104.673
Latest Arrival : SOO594 (A) (KCVG-KDEN) Latest Departure : UPSJUMP (KDEN-VVTS)


WX CaptureLIVE
Data provided by noaa.gov | Fetched at 17:17:24

METAR : KDEN 191653Z 21010KT 10SM FEW090 FEW120 FEW220 27/01 A2996 RMK AO2 SLP055 T02720011

TAF : KDEN 191502Z 1915/2018 23012G20KT P6SM FEW090 FM191700 26014G24KT P6SM FEW100 FM192300 29010KT P6SM FEW100 SCT140 FM200200 32010KT P6SM SCT140 FM200400 23007KT P6SM FEW150 FM200800 02014G22KT P6SM FEW100 SCT150 FM201400 33012KT P6SM FEW090 SCT150


Runway Data for KDEN
Data provided by openaviationdata.com

Runway ID Mag Var Hdg Length Elevation Surface ILS Freq ILS Id ILS Slope
7 11 79° 11980 ft 5324 ft Concrete 111.55 IDZG 3
8 11 79° 11980 ft 5324 ft Concrete 108.9 IFUI 3
16L 11 169° 12007 ft 5324 ft Concrete 111.1 ILTT 3
16R 11 169° 16011 ft 5324 ft Concrete 111.9 IDQQ 3
17L 11 169° 12008 ft 5324 ft Concrete 110.15 IBXP 3
17R 11 169° 12007 ft 5324 ft Concrete 108.5 IACX 3
25 11 259° 11980 ft 5324 ft Concrete 111.55 IERP 3
26 11 259° 11980 ft 5324 ft Concrete 108.9 IJOY 3
34L 11 349° 16011 ft 5324 ft Concrete 111.9 IDXU 3
34R 11 349° 12007 ft 5324 ft Concrete 111.1 IOUF 3
35L 11 349° 12007 ft 5324 ft Concrete 108.5 IAQD 3
35R 11 349° 12008 ft 5324 ft Concrete 110.15 IDPP 3

Denver International Airport, United States
Use only for reference purposes



Not for navigational purposes.